Location: Unspecified
(0.0000°N, 0.0000°E)
Time: 14:57:58
(UTC+00:00)

BREEZE-M R/B - Pass Details

Date: 03 November 2020
Orbit: 3083 x 63194 km, 23.7° (Epoch: 26 November)

Event Time Altitude Azimuth Distance (km) Brightness Sun altitude
Rises 04:49:29 0° 69° (ENE) 68,231 ? -13.0°
Reaches altitude 10° 05:46:14 10° 68° (ENE) 68,001 ? 0.6°
Maximum altitude 12:40:54 63° 1° (N) 46,726 ? 69.2°
Drops below altitude 10° 17:01:55 10° 104° (ESE) 7,580 ? 10.0°
Sets 17:05:13 0° 107° (ESE) 8,037 ? 9.2°
